EW7175 Weather Reports


Display with metric or nautical units.
time (UTC)temp
F
wind
direction
speed
MPH
gust
MPH
rain 1hr
in
rain 24hr
in
rain mn
in
humidity
%
barometer
mb
20260906224601 87 186 0.0 0.0 0.00 0.01 0.01 75 1009.6
20260906223047 85 161 0.0 0.0 0.00 0.01 0.01 80 1009.8
20260906221547 84 163 0.0 0.0 0.00 0.01 0.01 81 1010.0
20260906220045 83 163 0.0 0.0 0.00 0.01 0.01 83 1010.0
20260906214548 83 163 0.0 0.0 0.00 0.01 0.01 83 1010.4
20260906213044 83 163 0.0 0.0 0.00 0.01 0.01 82 1010.5
20260906211548 83 163 0.0 0.0 0.00 0.01 0.01 81 1010.7
20260906210055 83 155 0.0 0.0 0.00 0.01 0.01 82 1010.9
20260906204543 83 155 0.0 0.0 0.00 0.01 0.01 81 1011.2
20260906203042 83 155 0.0 0.0 0.00 0.01 0.01 79 1011.2
20260906201542 84 161 0.0 0.0 0.00 0.01 0.01 79 1011.0
20260906200050 84 182 0.0 0.0 0.01 0.01 0.01 80 1011.2
20260906194541 82 172 0.0 0.0 0.01 0.01 0.01 89 1010.9
20260906193040 81 168 0.0 0.0 0.01 0.01 0.01 89 1011.5
20260906191544 82 232 0.0 0.0 0.01 0.01 0.01 88 1011.7
20260906190042 82 232 0.0 0.0 0.00 0.00 0.00 86 1012.0
20260906184537 82 232 0.0 0.0 0.00 0.00 0.00 83 1012.2
20260906183038 83 236 0.0 0.0 0.00 0.00 0.00 83 1012.0
20260906181539 83 236 0.0 0.0 0.00 0.00 0.00 82 1012.3
20260906180035 83 239 0.0 0.0 0.00 0.00 0.00 79 1012.2
20260906174535 84 316 0.0 0.0 0.00 0.00 0.00 79 1012.3
20260906173038 86 169 0.0 0.0 0.00 0.00 0.00 77 1012.3
20260906171534 88 180 0.0 0.0 0.00 0.00 0.00 75 1012.4
20260906170034 88 269 0.0 0.0 0.00 0.00 0.00 75 1012.4
20260906164533 88 277 0.0 0.0 0.00 0.00 0.00 74 1012.3
20260906163032 88 286 0.0 0.0 0.00 0.00 0.00 74 1012.4
20260906161532 89 324 0.0 0.0 0.00 0.00 0.00 73 1012.4
20260906160038 89 340 0.0 0.0 0.00 0.00 0.00 73 1012.3
20260906154540 88 65 0.0 0.0 0.00 0.00 0.00 75 1012.4
20260906153026 87 20 0.0 0.0 0.00 0.00 0.00 78 1012.5
20260906151525 87 58 0.0 0.0 0.00 0.00 0.00 79 1012.4
20260906150024 86 258 0.0 0.0 0.00 0.00 0.00 81 1012.4
20260906144519 85 281 0.0 0.0 0.00 0.00 0.00 85 1012.5
20260906143014 84 134 0.0 0.0 0.00 0.00 0.00 87 1012.5
20260906141512 83 44 0.0 0.0 0.00 0.00 0.00 88 1012.4
20260906140010 82 57 0.0 0.0 0.00 0.00 0.00 92 1012.3
20260906134505 81 57 0.0 0.0 0.00 0.00 0.00 93 1012.2
20260906133002 80 57 0.0 0.0 0.00 0.00 0.00 94 1012.1
20260906131501 80 57 0.0 0.0 0.00 0.00 0.00 94 1011.9
20260906130100 79 57 0.0 0.0 0.00 0.00 0.00 95 1011.9
20260906124600 78 57 0.0 0.0 0.00 0.00 0.00 95 1011.6
20260906123056 78 57 0.0 0.0 0.00 0.00 0.00 95 1011.4
20260906121554 78 57 0.0 0.0 0.00 0.00 0.00 94 1011.3
20260906120050 78 57 0.0 0.0 0.00 0.00 0.00 94 1011.1
20260906114551 78 57 0.0 0.0 0.00 0.00 0.00 94 1011.0
20260906113049 78 57 0.0 0.0 0.00 0.00 0.00 94 1010.7
20260906111545 78 57 0.0 0.0 0.00 0.00 0.00 94 1010.8
20260906110041 79 57 0.0 0.0 0.00 0.00 0.00 93 1010.7
20260906104540 79 57 0.0 0.0 0.00 0.00 0.00 93 1010.7
20260906103039 79 57 0.0 0.0 0.00 0.00 0.00 93 1010.6
20260906101541 79 57 0.0 0.0 0.00 0.00 0.00 93 1010.3
20260906100038 80 57 0.0 0.0 0.00 0.00 0.00 92 1010.2
20260906094539 80 57 0.0 0.0 0.00 0.00 0.00 92 1010.3
20260906093038 80 57 0.0 0.0 0.00 0.00 0.00 92 1010.3
20260906091537 80 57 0.0 0.0 0.00 0.00 0.00 92 1010.1
20260906090036 80 57 0.0 0.0 0.00 0.00 0.00 92 1010.1
20260906084536 80 57 0.0 0.0 0.00 0.00 0.00 92 1010.0
20260906083040 80 57 0.0 0.0 0.00 0.00 0.00 91 1010.1
20260906081538 80 57 0.0 0.0 0.00 0.00 0.00 91 1010.1
20260906080035 80 57 0.0 0.0 0.00 0.00 0.00 91 1010.1
20260906074535 81 57 0.0 0.0 0.00 0.00 0.00 91 1010.3
20260906073034 81 57 0.0 0.0 0.00 0.00 0.00 90 1010.4
20260906071529 81 57 0.0 0.0 0.00 0.00 0.00 90 1010.5
20260906070027 80 57 0.0 0.0 0.00 0.00 0.00 90 1010.5
20260906064532 80 57 0.0 0.0 0.00 0.00 0.00 91 1010.6
20260906063021 80 57 0.0 0.0 0.00 0.00 0.00 91 1010.6
20260906061519 80 57 0.0 0.0 0.00 0.00 0.00 91 1010.7
20260906060017 80 57 0.0 0.0 0.00 0.00 0.00 92 1010.5
20260906054515 79 57 0.0 0.0 0.00 0.00 0.00 92 1010.6
20260906053010 79 57 0.0 0.0 0.00 0.00 0.00 92 1010.7
20260906051508 79 57 0.0 0.0 0.00 0.00 0.00 92 1010.6
20260906050016 79 57 0.0 0.0 0.00 0.00 0.00 92 1010.6
20260906044502 79 57 0.0 0.0 0.00 0.00 0.00 91 1010.6
20260906043001 79 57 0.0 0.0 0.00 0.00 0.00 91 1010.6
20260906041501 79 57 0.0 0.0 0.00 0.00 0.00 91 1010.6
20260906040100 79 57 0.0 0.0 0.00 0.00 0.00 91 1010.8
20260906034600 80 57 0.0 0.0 0.00 0.00 0.00 90 1010.8
20260906033100 80 57 0.0 0.0 0.00 0.00 0.00 90 1010.9
20260906031600 80 57 0.0 0.0 0.00 0.00 0.00 89 1010.8
20260906030129 80 57 0.0 0.0 0.00 0.00 0.00 89 1010.6
20260906024602 80 57 0.0 0.0 0.00 0.00 0.00 88 1010.5
20260906023112 81 57 0.0 0.0 0.00 0.00 0.00 88 1010.3
20260906021611 81 57 0.0 0.0 0.00 0.00 0.00 88 1010.1
20260906020101 81 43 0.0 0.0 0.00 0.00 0.00 88 1009.9
20260906014604 81 42 0.0 0.0 0.00 0.00 0.00 89 1009.7
20260906013056 81 39 0.0 0.0 0.00 0.00 0.00 89 1009.4
20260906011601 81 39 0.0 0.0 0.00 0.00 0.00 88 1009.5
20260906010055 81 39 0.0 0.0 0.00 0.00 0.00 88 1009.4
20260906004557 82 47 0.0 0.0 0.00 0.00 0.00 87 1009.7
20260906003105 82 38 0.0 4.0 0.00 0.00 0.00 85 1009.8
20260906001555 83 55 1.0 4.0 0.00 0.00 0.00 81 1009.9
20260906000054 85 61 2.0 6.0 0.00 0.00 0.00 76 1010.1
20260905234603 86 37 1.0 5.0 0.00 0.00 0.00 71 1010.1
20260905233053 86 42 0.0 2.0 0.00 0.00 0.00 71 1010.2
20260905231552 86 42 1.0 4.0 0.00 0.00 0.00 69 1010.0
20260905230053 87 34 1.0 4.0 0.00 0.00 0.00 69 1009.9